ASIASAT 6

导读

ASIASAT 6(亚洲六号卫星)由亚太卫星通信公司(ASTC)主导,于北京时间2014年9月7日凌晨发射入轨,是一颗专门针对广播电视与通信服务的地球同步轨道卫星。 该卫星定点于亚洲上空,搭载多个C波段转发器,覆盖东亚、南亚及东南亚区域,主要为区域内提供高清电视传输、宽带互联网接入、应急通信等服务,大幅提升了亚洲地区卫星通信容量与服务可靠性,至今仍为相关区域提供稳定的空间通信支撑。

基本信息
目录编号:
40141
目录名称:
ASIASAT 6
国际标识:
2014-052A
轨道中心:
EARTH
卫星名称:
ASIASAT 6
卫星全名:
--
卫星状态:
在轨 (已飞行4390 天)
发射日期:
2014-09-07 UTC
国别 :
(ASTC)
星等 :
--
该卫星已列入 空间交会检测服务 Space Conjunction Data Service (SCDS) ,当前飞行风险评估等级: 无高风险
轨道信息
数据来源 国际轨道数据 AOE轨道数据
星历时间 2026-09-14T01:50:43+0800
7小时前
查看轨道信息
2026-09-13T03:00:00+0800
1天前
查看轨道信息
半长轴 42164.504km 42164.224km
偏心率 0.0000886 0.0001077
轨道倾角 0.034° 0.035°
近地点辐角 247.020° 241.585°
升交点赤经 270.438° 269.905°
平近点角 222.866° 245.215°
近地点 35782.631km 35781.545km
远地点 35790.103km 35790.629km
周期 1436.085分钟 1436.071分钟
每日圈数 1.002726 1.002736
详细信息
使用方式:
暂无
2D轨道图
3D轨道图
轨道高度分析图
轨道倾角分析图
轨道综合分析图
查看轨道综合分析图
与全量物体交会距离演化趋势
与全量物体交会风险概率演化趋势